Weather History for KJSV - March, 2014

Change the Weather History Date:

Saturday, March 1, 2014

  Actual Average Record
Temperature  
Mean Temperature 50 °F -  
Max Temperature 59 °F 61 °F 86 °F (2006)
Min Temperature 42 °F 36 °F 13 °F (1962)
Degree Days  
Heating Degree Days 14    
Moisture  
Dew Point 41 °F    
Average Humidity 73    
Maximum Humidity 81    
Minimum Humidity 59    
Precipitation  
Precipitation 0.00 in - - ()
Sea Level Pressure  
Sea Level Pressure 30.01 in    
Wind  
Wind Speed 7 mph (East)    
Max Wind Speed 10 mph    
Max Gust Speed -    
Visibility 10 miles    
Events      
Averages and records for this station are not official NWS values.
T = Trace of Precipitation, MM = Missing Value Source: NWS Daily Summary

Daily Weather History Graph

Daily Weather History Graph

Search for Another Location

Airport or City:

Trip Planner

Search our weather history database for the weather conditions in past years. The results will help you decide how hot, cold, wet, or windy it might be!

Date:

Astronomy

Mar. 01, 2014 Rise Set
Actual Time 6:48 AM CST 6:14 PM CST
Civil Twilight 6:23 AM CST 6:40 PM CST
Nautical Twilight 5:53 AM CST 7:09 PM CST
Astronomical Twilight 5:24 AM CST 7:39 PM CST
Moon 6:45 AM CST (3/1) 6:59 PM CST (3/1)
Length of Visible Light 12h 16m
Length of Day
11h 25m
New Moon, 0% of the Moon is Illuminated
Mar 1
New Moon
Mar 8
First Quarter
Mar 16
Full
Mar 23
Last Quarter
Mar 30
New

Hourly Weather History & Observations

Time (CST) Temp. Windchill Dew Point Humidity Pressure Visibility Wind Dir Wind Speed Gust Speed Precip Events Conditions
12:15 AM 42.8 °F 38.0 °F 35.6 °F 76% 30.00 in 10.0 mi East 8.1 mph - N/A   Overcast
12:35 AM 42.8 °F 38.6 °F 35.6 °F 76% 30.00 in 10.0 mi East 6.9 mph - N/A   Overcast
12:55 AM 42.8 °F 40.1 °F 35.6 °F 76% 30.00 in 10.0 mi ESE 4.6 mph - N/A   Overcast
1:15 AM 42.8 °F 38.0 °F 35.6 °F 76% 30.01 in 10.0 mi East 8.1 mph - N/A   Overcast
1:35 AM 42.8 °F 39.3 °F 35.6 °F 76% 30.01 in 10.0 mi East 5.8 mph - N/A   Overcast
1:55 AM 42.8 °F 39.3 °F 35.6 °F 76% 30.01 in 10.0 mi East 5.8 mph - N/A   Overcast
2:15 AM 42.8 °F 39.3 °F 35.6 °F 76% 30.00 in 10.0 mi East 5.8 mph - N/A   Overcast
2:35 AM 42.8 °F 38.0 °F 35.6 °F 76% 30.00 in 10.0 mi East 8.1 mph - N/A   Overcast
2:55 AM 42.8 °F 39.3 °F 37.4 °F 81% 30.01 in 10.0 mi East 5.8 mph - N/A   Overcast
3:15 AM 42.8 °F 38.6 °F 37.4 °F 81% 30.00 in 10.0 mi East 6.9 mph - N/A   Overcast
3:35 AM 42.8 °F 37.5 °F 37.4 °F 81% 30.00 in 10.0 mi ENE 9.2 mph - N/A   Overcast
3:55 AM 42.8 °F 37.5 °F 37.4 °F 81% 30.00 in 10.0 mi East 9.2 mph - N/A   Overcast
4:15 AM 42.8 °F 38.6 °F 37.4 °F 81% 30.01 in 10.0 mi East 6.9 mph - N/A   Overcast
4:35 AM 42.8 °F 38.6 °F 37.4 °F 81% 30.02 in 10.0 mi East 6.9 mph - N/A   Overcast
4:55 AM 42.8 °F 39.3 °F 37.4 °F 81% 30.02 in 10.0 mi East 5.8 mph - N/A   Overcast
5:15 AM 42.8 °F 39.3 °F 37.4 °F 81% 30.02 in 10.0 mi ENE 5.8 mph - N/A   Overcast
5:35 AM 42.8 °F 38.0 °F 37.4 °F 81% 30.03 in 10.0 mi East 8.1 mph - N/A   Overcast
5:55 AM 42.8 °F 38.6 °F 37.4 °F 81% 30.02 in 10.0 mi East 6.9 mph - N/A   Overcast
6:15 AM 42.8 °F 38.6 °F 37.4 °F 81% 30.03 in 10.0 mi East 6.9 mph - N/A   Overcast
6:35 AM 42.8 °F 39.3 °F 37.4 °F 81% 30.03 in 10.0 mi East 5.8 mph - N/A   Overcast
6:55 AM 42.8 °F 39.3 °F 37.4 °F 81% 30.03 in 10.0 mi East 5.8 mph - N/A   Overcast
7:15 AM 42.8 °F 39.3 °F 37.4 °F 81% 30.03 in 10.0 mi East 5.8 mph - N/A   Overcast
7:35 AM 42.8 °F 39.3 °F 37.4 °F 81% 30.04 in 10.0 mi East 5.8 mph - N/A   Overcast
7:55 AM 44.6 °F 42.2 °F 37.4 °F 76% 30.05 in 10.0 mi NE 4.6 mph - N/A   Overcast
8:15 AM 44.6 °F 42.2 °F 37.4 °F 76% 30.06 in 10.0 mi NE 4.6 mph - N/A   Overcast
8:35 AM 44.6 °F 41.4 °F 37.4 °F 76% 30.06 in 7.0 mi ENE 5.8 mph - N/A   Overcast
8:55 AM 44.6 °F 40.7 °F 37.4 °F 76% 30.07 in 7.0 mi ENE 6.9 mph - N/A   Overcast
9:15 AM 44.6 °F 42.2 °F 39.2 °F 81% 30.07 in 7.0 mi East 4.6 mph - N/A   Overcast
9:35 AM 44.6 °F 41.4 °F 39.2 °F 81% 30.08 in 10.0 mi ENE 5.8 mph - N/A   Overcast
9:55 AM 46.4 °F 42.9 °F 41.0 °F 81% 30.08 in 10.0 mi East 6.9 mph - N/A   Overcast
10:15 AM 46.4 °F 42.9 °F 41.0 °F 81% 30.09 in 7.0 mi ENE 6.9 mph - N/A   Overcast
10:35 AM 46.4 °F 43.5 °F 41.0 °F 81% 30.08 in 7.0 mi East 5.8 mph - N/A   Overcast
10:55 AM 48.2 °F - 41.0 °F 76% 30.07 in 7.0 mi East 9.2 mph - N/A   Overcast
11:15 AM 50.0 °F - 42.8 °F 76% 30.06 in 7.0 mi East 9.2 mph - N/A   Overcast
11:35 AM 50.0 °F - 42.8 °F 76% 30.06 in 7.0 mi East 9.2 mph - N/A   Overcast
11:55 AM 51.8 °F - 42.8 °F 71% 30.05 in 7.0 mi ESE 8.1 mph - N/A   Overcast
12:15 PM 53.6 °F - 42.8 °F 67% 30.03 in 7.0 mi East 10.4 mph - N/A   Overcast
12:35 PM 55.4 °F - 42.8 °F 63% 30.01 in 10.0 mi East 10.4 mph - N/A   Overcast
12:55 PM 55.4 °F - 42.8 °F 63% 30.00 in 10.0 mi ESE 6.9 mph - N/A   Overcast
1:15 PM 55.4 °F - 44.6 °F 67% 29.99 in 10.0 mi East 9.2 mph - N/A   Overcast
1:35 PM 57.2 °F - 44.6 °F 63% 29.98 in 10.0 mi East 9.2 mph - N/A   Overcast
1:55 PM 57.2 °F - 44.6 °F 63% 29.97 in 10.0 mi East 9.2 mph - N/A   Overcast
2:15 PM 59.0 °F - 44.6 °F 59% 29.98 in 10.0 mi East 6.9 mph - N/A   Overcast
2:35 PM 59.0 °F - 44.6 °F 59% 29.98 in 10.0 mi East 5.8 mph - N/A   Mostly Cloudy
2:55 PM 59.0 °F - 44.6 °F 59% 29.97 in 10.0 mi East 6.9 mph - N/A   Overcast
3:15 PM 59.0 °F - 44.6 °F 59% 29.97 in 10.0 mi East 6.9 mph - N/A   Overcast
3:35 PM 59.0 °F - 46.4 °F 63% 29.97 in 10.0 mi East 6.9 mph - N/A   Overcast
3:55 PM 59.0 °F - 46.4 °F 63% 29.98 in 10.0 mi East 6.9 mph - N/A   Overcast
4:15 PM 59.0 °F - 46.4 °F 63% 29.97 in 10.0 mi East 5.8 mph - N/A   Overcast
4:35 PM 59.0 °F - 46.4 °F 63% 29.96 in 10.0 mi East 10.4 mph - N/A   Overcast
4:55 PM 59.0 °F - 46.4 °F 63% 29.96 in 10.0 mi East 9.2 mph - N/A   Overcast
5:15 PM 59.0 °F - 46.4 °F 63% 29.95 in 10.0 mi East 8.1 mph - N/A   Mostly Cloudy
5:35 PM 59.0 °F - 46.4 °F 63% 29.96 in 10.0 mi East 8.1 mph - N/A   Overcast
5:55 PM 57.2 °F - 46.4 °F 67% 29.96 in 10.0 mi East 4.6 mph - N/A   Overcast
6:15 PM 55.4 °F - 46.4 °F 72% 29.97 in 10.0 mi East 5.8 mph - N/A   Overcast
6:35 PM 55.4 °F - 46.4 °F 72% 29.97 in 10.0 mi ENE 5.8 mph - N/A   Overcast
6:55 PM 55.4 °F - 46.4 °F 72% 29.97 in 10.0 mi East 6.9 mph - N/A   Mostly Cloudy
7:15 PM 53.6 °F - 46.4 °F 77% 29.97 in 10.0 mi East 5.8 mph - N/A   Scattered Clouds
7:35 PM 53.6 °F - 46.4 °F 77% 29.97 in 10.0 mi ENE 5.8 mph - N/A   Mostly Cloudy
7:55 PM 53.6 °F - 46.4 °F 77% 29.97 in 10.0 mi ENE 5.8 mph - N/A   Overcast
8:15 PM 53.6 °F - 46.4 °F 77% 29.98 in 10.0 mi ENE 4.6 mph - N/A   Overcast
8:35 PM 55.4 °F - 46.4 °F 72% 29.99 in 10.0 mi NE 4.6 mph - N/A   Overcast
8:55 PM 55.4 °F - 46.4 °F 72% 29.99 in 10.0 mi Calm Calm - N/A   Overcast
9:15 PM 53.6 °F - 46.4 °F 77% 30.00 in 10.0 mi NW 3.5 mph - N/A   Mostly Cloudy
9:35 PM 53.6 °F - 46.4 °F 77% 30.01 in 10.0 mi WNW 3.5 mph - N/A   Overcast
9:55 PM 53.6 °F - 46.4 °F 77% 30.03 in 10.0 mi West 3.5 mph - N/A   Overcast
10:10 PM 53.6 °F - 46.4 °F 77% 30.02 in 10.0 mi West 6.9 mph - N/A   Overcast
10:35 PM 50.0 °F - 37.4 °F 62% 30.04 in 10.0 mi West 9.2 mph - N/A   Overcast
10:55 PM 48.2 °F - 35.6 °F 62% 30.05 in 10.0 mi West 8.1 mph - N/A   Overcast
11:15 PM 46.4 °F 43.5 °F 33.8 °F 62% 30.04 in 10.0 mi WNW 5.8 mph - N/A   Overcast
11:35 PM 46.4 °F 41.5 °F 33.8 °F 62% 30.04 in 10.0 mi NW 10.4 mph - N/A   Overcast
11:55 PM 44.6 °F 39.7 °F 32.0 °F 61% 30.05 in 10.0 mi WNW 9.2 mph - N/A   Overcast